{"data":{"norad_id":49187,"intl_designator":"2021-083B","name":"ONEWEB-0303","alt_names":[],"object_type":"PAYLOAD","status":"ACTIVE","operator":null,"country":"UK","launch_date":"2021-09-14","launch_site_code":"TYMSC","launch_vehicle":null,"mission":null,"orbit_class":"UNKNOWN","rcs_meters":null,"size_class":null,"mass_kg":null,"dimensions":null,"purposes":["comms"],"wikipedia_slug":null,"has_3d_model":false,"image_url":null,"decayed_at":null,"tle_current":{"epoch":"2026-09-20T03:35:12.401376Z","epoch_age_seconds":52337,"freshness":"FRESH","line1":"1 49187U 21083B   26263.14944909  .00000028  00000+0  39234-4 0  9996","line2":"2 49187  87.9162 316.5889 0002044 101.9247 258.2115 13.18684899242490","mean_motion":13.18684899,"eccentricity":0.0002044,"inclination_deg":87.9162,"raan_deg":316.5889,"arg_perigee_deg":101.9247,"mean_anomaly_deg":258.2115,"bstar":3.9234e-5,"rev_number":24249,"period_min":109.19970351461,"perigee_km":1188.2004637042,"apogee_km":1191.2942148221,"semimajor_km":7567.8843392632,"source":"CELESTRAK","updated_at":"2026-09-20T09:00:44.660300Z"}}}